Regional Weather Roundup
Issued by NWS

Home | Current Version | Previous Version | Graphics & Text | Print | Product List | Glossary On
Versions: 1 2 3 4 5 6 7 8 9 10 11 12 13 14 15 16 17 18 19 20 21 22 23 24 25 26 27 28 29 30 31 32 33 34 35 36 37 38 39 40 41 42 43 44 45 46 47 48 49 50
000
ASUS44 KMEG 030000
RWRTN
TENNESSEE HOURLY STATE WEATHER ROUNDUP
NATIONAL WEATHER SERVICE MEMPHIS TN
700 PM CDT SUN AUG 02 2015

TNZ002-004-019-021-049-052-054-088>092-030100-
WEST TENNESSEE

CITY           SKY/WX    TMP DP  RH WIND       PRES   REMARKS
MEMPHIS INTL   MOSUNNY   87  70  56 S7        29.90F HX  92
NWS MEMPHIS      N/A     90 N/A N/A MISG        N/A
JACKSON        PTSUNNY   86  72  62 CALM      29.91S HX  92
DYERSBURG        N/A    N/A N/A N/A MISG        N/A
PARIS          SUNNY     84  70  61 CALM      29.92F
LEXINGTON      CLEAR     81  70  69 CALM      29.91F
$$

TNZ008-025-027-028-033-062-065-066-030100-
NORTH MIDDLE TENNESSEE

CITY           SKY/WX    TMP DP  RH WIND       PRES   REMARKS
NASHVILLE      PTCLDY    86  52  30 E5        29.92F
CLARKSVILLE    CLEAR     84  63  49 SW5       29.91F
CROSSVILLE     PTCLDY    80  60  50 W6        29.99S
$$

TNZ061-075-076-078-094-096-097-030100-
SOUTH MIDDLE TENNESSEE

CITY           SKY/WX    TMP DP  RH WIND       PRES   REMARKS
FAYETTEVILLE     N/A     82  59  44 CALM      29.93S
TULLAHOMA      CLEAR     82  54  36 CALM      29.95F
WINCHESTER     CLEAR     82  61  47 N5        29.93F
COLUMBIA       CLEAR     86  63  45 N3        29.91F
SHELBYVILLE    CLEAR     88  63  42 CALM      29.93F
$$

TNZ017-018-042-046-047-030100-
NORTHEAST TENNESSEE

CITY           SKY/WX    TMP DP  RH WIND       PRES   REMARKS
TRI CITIES     PTCLDY    80  57  45 N5        29.96S
ELIZABETHTON   CLEAR     75  57  53 CALM      29.97R
$$

TNZ012-013-036-069-073-074-030100-
CENTRAL EAST TENNESSEE

CITY           SKY/WX    TMP DP  RH WIND       PRES   REMARKS
KNOXVILLE      MOCLDY    85  60  42 W5        29.91F
OAK RIDGE      CLEAR     88  55  32 NW3       29.94S
GATLINBURG     CLEAR     84  61  45 VRB3      29.92S
$$

TNZ083-085-099-030100-
SOUTHEAST TENNESSEE

CITY           SKY/WX    TMP DP  RH WIND       PRES   REMARKS
CHATTANOOGA    MOCLDY    87  57  35 NE9       29.90F
$$

SKY/WX REPORTED AS FAIR MEANS FEW OR NO CLOUDS BELOW
12 THOUSAND FEET.



USA.gov is the U.S. government's official web portal to all federal, state and local government web resources and services.